User: anonymous   Login
Location: Hebron
(33.0265°N, 96.8636°W)
Time: 05:07:51
(UTC+00:00)
Language:

OAO 2 Rocket - Orbit

View from above orbital plane
View from above orbital plane
View from above satellite
View from above satellite

Ground track
Ground track

The orbit data is extracted from the following two-line orbital elements,

1  3598U 68110B   22148.54437044  .00000370  00000-0  88779-4 0  9992
2  3598  34.9921 214.6581 0048622 123.8799 236.6532 14.54687248829604
Epoch (UTC): 28 May 2022 13:03:53
Eccentricity: 0.0048622
inclination: 34.9921°
perigee height: 676 km
apogee height: 745 km
right ascension of ascending node: 214.6581°
argument of perigee: 123.8799°
revolutions per day: 14.54687248
mean anomaly at epoch: 236.6532°
orbit number at epoch: 82960

The dashed part of the orbit path shows where the satellite is in the earth's shadow,  

DLR